Retour au catalogue

NOAA 16 DEB

ActifPO
NORAD 42427·DEBRIS·🇺🇸 United States

Lancé Sep 21, 2000 depuis Vandenberg Space Force Base

Loading…

Prochains Passages (prochaines 24 heures)

TLE

VieillissantSource: Space-Track

Époque: Sep 7, 2026, 13:29 UTC

1 42427U 00055TX  26250.56227428  .00028043  00000-0  24382-2 0  9998
2 42427  98.8855 175.6573 0022165 293.2976  66.5909 14.96749923530212

Suivez NOAA 16 DEB en temps réel avec AllMySat

Download on the App Store